This demonstration page uses our WeatherBlox Daily Observations layout. Learn more.

Left ArrowRight Arrow

Hourly Observations for May 18, 2017

Temp ( °F °C ) Dew Point ( °F °C ) Humidity (%) Winds ( mph kmh ) Pressure ( in mb ) Visibility ( mi km ) Precip ( " mm )
12:50 am 00:50 Cloudy 57 14 50 10 77 77 WNW 18 30 29.68 1005 10 16.0934 0 0
12:54 am 00:54 Cloudy 58 14.4 50 10 75 75 WNW 22 35 29.69 1005 10 16.0934 0 0
1:24 am 01:24 Mostly Cloudy 57 13.9 49 9.4 74 74 NW 22 35 29.68 1005 10 16.0934 0 0
1:54 am 01:54 Mostly Cloudy 57 13.9 49 9.4 74 74 NW 17 28 29.7 1006 10 16.0934 0 0
2:07 am 02:07 Partly Cloudy 56 13.3 48 8.9 75 75 NW 20 31 29.71 1006 10 16.0934 0 0
2:33 am 02:33 Mostly Cloudy 56 13.3 48 8.9 75 75 WNW 17 28 29.77 1008 10 16.0934 0 0
2:54 am 02:54 Cloudy 56 13.3 48 8.9 75 75 NW 13 20 29.76 1008 10 16.0934 0 0
3:54 am 03:54 Cloudy 56 13.3 47 8.3 72 72 NNW 14 22 29.77 1008 10 16.0934 0 0
4:54 am 04:54 Cloudy 55 12.8 47 8.3 74 74 NNW 14 22 29.79 1009 10 16.0934 0 0
5:52 am 05:52 Cloudy 55 13 48 9 77 77 N 14 22 29.8 1009 10 16.0934 0 0
5:54 am 05:54 Cloudy 54 12.2 48 8.9 80 80 N 16 26 29.8 1009 10 16.0934 0 0
6:54 am 06:54 Cloudy 54 12.2 48 8.9 80 80 N 21 33 29.82 1010 10 16.0934 0 0
7:54 am 07:54 Cloudy 55 12.8 49 9.4 80 80 NNE 21 33 29.83 1010 10 16.0934 0 0
8:54 am 08:54 Cloudy 56 13.3 49 9.4 77 77 NNE 14 22 29.87 1012 10 16.0934 0 0
9:23 am 09:23 Cloudy 57 13.9 50 10 78 78 NNE 18 30 29.88 1012 10 16.0934 0 0
9:54 am 09:54 Cloudy 58 14.4 50 10 75 75 NNE 15 24 29.88 1012 10 16.0934 0 0
10:54 am 10:54 Cloudy 59 15 50 10 72 72 NNE 14 22 29.9 1013 10 16.0934 0 0
11:54 am 11:54 Cloudy 60 15.6 51 10.6 72 72 NE 16 26 29.91 1013 10 16.0934 0 0
12:54 pm 12:54 Cloudy 61 16.1 50 10 67 67 NE 16 26 29.91 1013 10 16.0934 0 0
1:54 pm 13:54 Cloudy 62 16.7 51 10.6 67 67 NE 16 26 29.9 1013 10 16.0934 0 0
2:54 pm 14:54 Cloudy 63 17.2 52 11.1 68 68 ENE 14 22 29.91 1013 10 16.0934 0 0
3:32 pm 15:32 Cloudy 62 16.7 51 10.6 67 67 ENE 15 24 29.91 1013 10 16.0934 0 0
3:54 pm 15:54 Cloudy 63 17.2 51 10.6 65 65 ENE 14 22 29.91 1013 10 16.0934 0 0
4:54 pm 16:54 Mostly Sunny 66 18.9 53 11.7 63 63 NE 16 26 29.88 1012 10 16.0934 0 0
5:54 pm 17:54 Mostly Cloudy 64 17.8 52 11.1 65 65 ENE 21 33 29.84 1011 10 16.0934 0 0
6:54 pm 18:54 Cloudy 62 16.7 51 10.6 67 67 NE 20 31 29.88 1012 10 16.0934 0 0
7:54 pm 19:54 Cloudy 60 15.6 49 9.4 67 67 NE 21 33 29.9 1013 10 16.0934 0 0
8:54 pm 20:54 Cloudy with Nearby Thunderstorms 56 13.3 51 10.6 84 84 ENE 14 22 29.94 1014 9 14.48406 0.02 0.508
9:24 pm 21:24 Cloudy with Light Thunderstorms 56 13.3 51 10.6 84 84 ENE 9 15 29.97 1015 10 16.0934 0.02 0.508
9:39 pm 21:39 Cloudy with Light Thunderstorms 55 12.8 52 11.1 90 90 ENE 9 15 29.97 1015 9 14.48406 0.03 0.762
9:54 pm 21:54 Cloudy with Light Thunderstorms 55 12.8 52 11.1 90 90 ENE 7 11 29.98 1015 8 12.87472 0.06 1.524
9:59 pm 21:59 Cloudy with Rain 55 12.8 52 11.1 90 90 NE 6 9 30 1016 7 11.26538 0.01 0.254
10:08 pm 22:08 Cloudy with Rain 54 12.2 52 11.1 93 93 NNE 7 11 29.97 1015 4 6.43736 0.04 1.016
10:17 pm 22:17 Cloudy with Nearby Thunderstorms 54 12.2 52 11.1 93 93 NNE 7 11 29.97 1015 4 6.43736 0.1 2.54
10:32 pm 22:32 Cloudy with Rain 54 12.2 52 11.1 93 93 NE 9 15 30 1016 5 8.0467 0.15 3.81
10:40 pm 22:40 Cloudy with Nearby Thunderstorms 54 12.2 52 11.1 93 93 NE 9 15 30 1016 6 9.65604 0.17 4.318
10:54 pm 22:54 Cloudy with Light Rain 54 12.2 52 11.1 93 93 NE 9 15 29.99 1016 6 9.65604 0.2 5.08
11:16 pm 23:16 Cloudy with Rain 54 12.2 52 11.1 93 93 NE 12 19 30 1016 5 8.0467 0.04 1.016
11:42 pm 23:42 Cloudy with Rain 53 11.7 52 11.1 96 96 NNE 8 13 29.97 1015 6 9.65604 0.09 2.286
11:54 pm 23:54 Cloudy with Light Rain 53 11.7 52 11.1 96 96 NE 10 17 29.97 1015 8 12.87472 0.11 2.794

Powered by AerisWeather